DW1174 Weather Reports


Display with metric or nautical units.
time (UTC)temp
F
wind
direction
speed
MPH
gust
MPH
rain 1hr
in
rain 24hr
in
rain mn
in
humidity
%
barometer
mb
20260508132136 50 197 0.0 1.0 0.00 0.00 0.00 80 1010.6
20260508131635 50 184 0.0 3.0 0.00 0.00 0.00 80 1010.6
20260508131108 50 184 0.0 3.0 0.00 0.00 0.00 81 1010.6
20260508130606 50 184 0.0 0.0 0.00 0.00 0.00 80 1010.6
20260508130056 50 184 0.0 1.0 0.00 0.00 0.00 80 1010.6
20260508125550 50 184 0.0 2.0 0.00 0.00 0.00 80 1010.5
20260508125046 50 186 0.0 2.0 0.00 0.00 0.00 80 1010.4
20260508124529 50 184 0.0 3.0 0.00 0.00 0.00 80 1010.3
20260508124024 50 184 0.0 3.0 0.00 0.00 0.00 81 1010.3
20260508123454 49 182 0.0 0.0 0.00 0.00 0.00 81 1010.2
20260508122950 49 182 0.0 0.0 0.00 0.00 0.00 80 1010.1
20260508122422 49 178 0.0 0.0 0.00 0.00 0.00 81 1010.0
20260508121832 49 178 0.0 0.0 0.00 0.00 0.00 81 1010.0
20260508121313 49 178 0.0 0.0 0.00 0.00 0.00 81 1010.0
20260508120938 49 178 0.0 0.0 0.00 0.00 0.00 82 1010.2
20260508120134 48 178 0.0 0.0 0.00 0.00 0.00 81 1010.1
20260508115558 48 178 0.0 0.0 0.00 0.00 0.00 82 1010.0
20260508115058 48 178 0.0 0.0 0.00 0.00 0.00 82 1009.8
20260508114513 48 178 0.0 0.0 0.00 0.00 0.00 82 1009.6
20260508113952 48 178 0.0 0.0 0.00 0.00 0.00 83 1009.7
20260508113438 47 178 0.0 0.0 0.00 0.00 0.00 83 1009.6
20260508112911 47 178 0.0 0.0 0.00 0.00 0.00 83 1009.6
20260508112314 47 178 0.0 0.0 0.00 0.00 0.00 83 1009.6
20260508111951 47 178 0.0 0.0 0.00 0.00 0.00 83 1009.6
20260508111155 47 178 0.0 0.0 0.00 0.00 0.00 83 1009.6
20260508110652 47 178 0.0 0.0 0.00 0.00 0.00 84 1009.5
20260508110141 47 178 0.0 0.0 0.00 0.00 0.00 84 1009.6
20260508105612 46 178 0.0 0.0 0.00 0.00 0.00 84 1009.5
20260508105339 46 178 0.0 0.0 0.00 0.00 0.00 84 1009.4
20260508104735 46 178 0.0 0.0 0.00 0.00 0.00 84 1009.6
20260508103953 46 178 0.0 0.0 0.00 0.00 0.00 84 1009.4
20260508103644 46 178 1.0 1.0 0.00 0.00 0.00 84 1009.4
20260508103051 46 178 1.0 3.0 0.00 0.00 0.00 83 1009.3
20260508102455 46 178 0.0 4.0 0.00 0.00 0.00 82 1009.2
20260508101648 46 178 0.0 4.0 0.00 0.00 0.00 82 1009.2
20260508101058 46 178 0.0 1.0 0.00 0.00 0.00 82 1009.2
20260508100540 46 178 1.0 5.0 0.00 0.00 0.00 81 1009.4
20260508100208 47 178 0.0 5.0 0.00 0.00 0.00 81 1009.4
20260508095405 47 178 0.0 0.0 0.00 0.00 0.00 81 1009.4
20260508094828 47 178 0.0 0.0 0.00 0.00 0.00 81 1009.5
20260508094310 47 178 0.0 0.0 0.00 0.00 0.00 81 1009.6
20260508093809 47 178 0.0 0.0 0.00 0.00 0.00 81 1009.5
20260508093236 47 178 0.0 0.0 0.00 0.00 0.00 81 1009.5
20260508092727 47 178 0.0 0.0 0.00 0.00 0.00 80 1009.5
20260508092224 47 178 0.0 0.0 0.00 0.00 0.00 80 1009.5
20260508091634 47 178 0.0 0.0 0.00 0.00 0.00 79 1009.6
20260508091043 47 178 0.0 2.0 0.00 0.00 0.00 79 1009.6
20260508090516 47 178 0.0 2.0 0.00 0.00 0.00 79 1009.6
20260508085948 47 178 1.0 4.0 0.00 0.00 0.00 79 1009.6
20260508085414 47 177 1.0 6.0 0.00 0.00 0.00 78 1009.6
20260508084910 47 198 1.0 6.0 0.00 0.00 0.00 78 1009.6
20260508084402 47 175 2.0 6.0 0.00 0.00 0.00 77 1009.6
20260508083855 47 215 2.0 3.0 0.00 0.00 0.00 77 1009.6
20260508083352 48 215 1.0 7.0 0.00 0.00 0.00 77 1009.5
20260508083105 48 215 0.0 7.0 0.00 0.00 0.00 76 1009.6
20260508082336 48 174 1.0 3.0 0.00 0.00 0.00 76 1009.6
20260508081824 48 171 1.0 11.0 0.00 0.00 0.00 75 1009.6
20260508081306 48 171 1.0 11.0 0.00 0.00 0.00 75 1009.8
20260508080807 48 148 1.0 5.0 0.00 0.00 0.00 75 1009.7
20260508080441 48 148 1.0 5.0 0.00 0.00 0.00 74 1009.8
20260508075656 48 165 0.0 4.0 0.00 0.00 0.00 74 1009.8
20260508075202 47 164 0.0 2.0 0.00 0.00 0.00 74 1009.7
20260508074621 47 164 0.0 3.0 0.00 0.00 0.00 74 1009.7
20260508074038 47 164 0.0 3.0 0.00 0.00 0.00 74 1009.6
20260508073542 47 192 0.0 2.0 0.00 0.00 0.00 74 1009.7
20260508072956 47 192 2.0 5.0 0.00 0.00 0.00 74 1009.5
20260508072427 47 192 2.0 5.0 0.00 0.00 0.00 74 1009.5
20260508072112 46 190 2.0 5.0 0.00 0.00 0.00 75 1009.5
20260508071341 46 190 2.0 5.0 0.00 0.00 0.00 75 1009.5
20260508071107 46 192 3.0 4.0 0.00 0.00 0.00 76 1009.5
20260508070758 46 192 3.0 4.0 0.00 0.00 0.00 76 1009.6
20260508065749 46 192 3.0 4.0 0.00 0.00 0.00 76 1009.5
20260508065215 46 192 2.0 4.0 0.00 0.00 0.00 75 1009.6
20260508064930 46 192 1.0 3.0 0.00 0.00 0.00 75 1009.5
20260508064213 46 192 0.0 1.0 0.00 0.00 0.00 75 1009.6
20260508063638 46 192 0.0 1.0 0.00 0.00 0.00 74 1009.5
20260508063100 46 192 0.0 0.0 0.00 0.00 0.00 74 1009.5
20260508062529 47 192 0.0 0.0 0.00 0.00 0.00 73 1009.6
20260508061952 47 192 0.0 0.0 0.00 0.00 0.00 73 1009.8
20260508061417 47 192 1.0 2.0 0.00 0.00 0.00 72 1009.8
20260508061059 47 192 1.0 3.0 0.00 0.00 0.00 72 1009.8
20260508060307 47 192 2.0 3.0 0.00 0.00 0.00 72 1009.9
20260508055955 47 192 2.0 3.0 0.00 0.00 0.00 72 1010.0
20260508055159 47 192 2.0 3.0 0.00 0.00 0.00 71 1010.0
20260508054622 47 192 1.0 3.0 0.00 0.00 0.00 71 1010.1
20260508054053 47 192 2.0 3.0 0.00 0.00 0.00 71 1010.1
20260508053953 47 192 2.0 3.0 0.00 0.00 0.00 71 1010.1
20260508053206 47 192 2.0 3.0 0.00 0.00 0.00 70 1010.2
20260508052413 47 192 2.0 3.0 0.00 0.00 0.00 70 1010.3
20260508051840 47 192 1.0 3.0 0.00 0.00 0.00 69 1010.3
20260508051321 47 192 1.0 2.0 0.00 0.00 0.00 69 1010.3
20260508050813 47 192 1.0 2.0 0.00 0.00 0.00 68 1010.5
20260508050241 47 192 1.0 3.0 0.00 0.00 0.00 67 1010.6
20260508045712 47 192 1.0 3.0 0.00 0.00 0.00 67 1010.5
20260508045433 47 192 1.0 3.0 0.00 0.00 0.00 67 1010.6
20260508044711 47 192 0.0 3.0 0.00 0.00 0.00 66 1010.5
20260508044141 47 196 0.0 1.0 0.00 0.00 0.00 66 1010.5
20260508043609 47 196 0.0 0.0 0.00 0.00 0.00 66 1010.5
20260508043258 47 175 0.0 2.0 0.00 0.00 0.00 66 1010.6
20260508042505 47 173 0.0 5.0 0.00 0.00 0.00 67 1010.5
20260508041937 46 284 0.0 0.0 0.00 0.00 0.00 69 1010.5
20260508041402 46 284 0.0 0.0 0.00 0.00 0.00 71 1010.5
20260508040829 46 284 0.0 0.0 0.00 0.00 0.00 71 1010.3
20260508040303 45 294 0.0 0.0 0.00 0.00 0.00 74 1010.2
20260508035952 45 294 0.0 0.0 0.00 0.00 0.00 74 1010.3
20260508035201 45 295 0.0 0.0 0.00 0.00 0.00 74 1010.3
20260508034625 45 295 0.0 0.0 0.00 0.00 0.00 75 1010.3
20260508034055 45 295 0.0 0.0 0.00 0.00 0.00 75 1010.3
20260508033523 45 295 0.0 0.0 0.00 0.00 0.00 74 1010.3
20260508033007 44 295 0.0 0.0 0.00 0.00 0.00 74 1010.2
20260508032709 44 295 0.0 0.0 0.00 0.00 0.00 76 1010.1
20260508031911 44 296 0.0 0.0 0.00 0.00 0.00 76 1010.0
20260508031356 44 296 0.0 0.0 0.00 0.00 0.00 76 1010.1
20260508030818 43 296 0.0 0.0 0.00 0.00 0.00 79 1010.1
20260508030243 43 296 0.0 0.0 0.00 0.00 0.00 81 1010.0
20260508025737 43 296 0.0 0.0 0.00 0.00 0.00 81 1010.1
20260508025235 42 296 0.0 0.0 0.00 0.00 0.00 81 1010.1
20260508024657 42 296 0.0 0.0 0.00 0.00 0.00 81 1010.1
20260508024134 42 296 0.0 0.0 0.00 0.00 0.00 81 1010.2
20260508023553 42 296 0.0 0.0 0.00 0.00 0.00 81 1010.2
20260508023045 43 296 0.0 0.0 0.00 0.00 0.00 81 1010.2
20260508022547 43 296 0.0 0.0 0.00 0.00 0.00 80 1010.1
20260508022233 43 296 0.0 0.0 0.00 0.00 0.00 79 1010.2
20260508021453 43 296 0.0 0.0 0.00 0.00 0.00 78 1010.3
20260508020957 44 296 0.0 0.0 0.00 0.00 0.00 77 1010.1
20260508020435 44 296 0.0 0.0 0.00 0.00 0.00 76 1010.1
20260508020132 44 296 0.0 0.0 0.00 0.00 0.00 75 1010.1
20260508015329 45 296 0.0 0.0 0.00 0.00 0.00 74 1010.1
20260508014803 45 296 0.0 0.0 0.00 0.00 0.00 72 1010.1
20260508014305 46 296 0.0 0.0 0.00 0.00 0.00 71 1010.1
20260508013747 46 296 0.0 0.0 0.00 0.00 0.00 70 1010.2
20260508013243 47 296 0.0 0.0 0.00 0.00 0.00 68 1010.1
20260508012922 47 296 0.0 0.0 0.00 0.00 0.00 68 1010.1
20260508012137 47 296 0.0 0.0 0.00 0.00 0.00 67 1010.2
20260508011858 48 296 0.0 0.0 0.00 0.00 0.00 66 1010.2
20260508011320 48 296 0.0 0.0 0.00 0.00 0.00 66 1010.2
20260508010459 48 296 0.0 0.0 0.00 0.00 0.00 64 1010.2
20260508005935 49 296 0.0 0.0 0.00 0.00 0.00 64 1010.3
20260508005435 49 296 0.0 0.0 0.00 0.00 0.00 63 1010.3
20260508004859 49 296 0.0 0.0 0.00 0.00 0.00 62 1010.3
20260508004621 49 296 0.0 0.0 0.00 0.00 0.00 61 1010.2
20260508003816 50 296 0.0 0.0 0.00 0.00 0.00 60 1010.2
20260508003253 50 296 0.0 1.0 0.00 0.00 0.00 60 1010.3
20260508002745 50 296 0.0 1.0 0.00 0.00 0.00 59 1010.2
20260508002231 51 273 0.0 0.0 0.00 0.00 0.00 58 1010.3
20260508001707 51 274 0.0 3.0 0.00 0.00 0.00 57 1010.3
20260508001200 51 273 0.0 7.0 0.00 0.00 0.00 56 1010.3
20260508001006 51 274 0.0 7.0 0.00 0.00 0.00 55 1010.3
20260507235625 51 242 1.0 3.0 0.00 0.00 0.00 54 1010.0
20260507235106 51 242 1.0 3.0 0.00 0.00 0.00 53 1010.0
20260507234608 52 293 1.0 6.0 0.00 0.00 0.00 53 1010.0
20260507234036 52 355 1.0 6.0 0.00 0.00 0.00 54 1010.1
20260507233529 52 299 1.0 5.0 0.00 0.00 0.00 53 1010.1
20260507233026 52 244 1.0 4.0 0.00 0.00 0.00 53 1010.1
20260507232524 52 237 1.0 3.0 0.00 0.00 0.00 53 1010.1
20260507232007 53 335 1.0 7.0 0.00 0.00 0.00 52 1010.2
20260507231512 53 296 1.0 7.0 0.00 0.00 0.00 52 1010.1
20260507231002 53 304 1.0 5.0 0.00 0.00 0.00 52 1010.2
20260507230503 53 294 3.0 11.0 0.00 0.00 0.00 51 1010.2
20260507225933 53 192 3.0 11.0 0.00 0.00 0.00 51 1010.2
20260507225654 53 293 2.0 9.0 0.00 0.00 0.00 52 1010.3
20260507225122 53 255 1.0 9.0 0.00 0.00 0.00 53 1010.2
20260507224403 53 229 1.0 6.0 0.00 0.00 0.00 53 1010.3
20260507223832 53 294 1.0 6.0 0.00 0.00 0.00 54 1010.3
20260507223303 53 258 2.0 5.0 0.00 0.00 0.00 53 1010.3
20260507222756 53 341 3.0 7.0 0.00 0.00 0.00 52 1010.3
20260507222247 53 286 2.0 9.0 0.00 0.00 0.00 53 1010.2
20260507221748 53 261 1.0 9.0 0.00 0.00 0.00 53 1010.2
20260507221219 53 254 2.0 11.0 0.00 0.00 0.00 56 1010.3
20260507220943 53 234 3.0 11.0 0.00 0.00 0.00 54 1010.2
20260507220139 54 208 2.0 6.0 0.00 0.00 0.00 53 1010.3
20260507215620 54 257 2.0 11.0 0.00 0.00 0.00 55 1010.4
20260507215109 54 255 3.0 11.0 0.00 0.00 0.00 53 1010.2
20260507214559 54 248 2.0 9.0 0.00 0.00 0.00 53 1010.3
20260507214056 53 250 3.0 9.0 0.00 0.00 0.00 54 1010.1
20260507213746 53 17 3.0 11.0 0.00 0.00 0.00 53 1010.0
20260507213001 54 334 3.0 8.0 0.00 0.00 0.00 52 1010.1
20260507212431 54 313 2.0 7.0 0.00 0.00 0.00 54 1010.0
20260507212116 53 309 3.0 7.0 0.00 0.00 0.00 54 1009.8
20260507211403 53 304 2.0 7.0 0.00 0.00 0.00 56 1009.9
20260507210836 52 322 1.0 5.0 0.00 0.00 0.00 57 1009.8
20260507210338 52 286 1.0 6.0 0.00 0.00 0.00 57 1009.8
20260507210043 52 325 1.0 6.0 0.00 0.00 0.00 58 1009.8
20260507205234 52 355 1.0 9.0 0.00 0.00 0.00 57 1009.8
20260507204727 53 252 1.0 5.0 0.00 0.00 0.00 58 1010.0
20260507204230 53 266 1.0 4.0 0.00 0.00 0.00 57 1009.9
20260507203703 53 321 1.0 3.0 0.00 0.00 0.00 59 1009.8
20260507203207 53 292 3.0 7.0 0.00 0.00 0.00 57 1009.8
20260507202619 54 296 2.0 8.0 0.00 0.00 0.00 54 1010.0
20260507202110 54 309 2.0 8.0 0.00 0.00 0.00 55 1010.0
20260507201604 54 330 2.0 8.0 0.00 0.00 0.00 54 1009.9
20260507201105 54 304 2.0 5.0 0.00 0.00 0.00 53 1009.8
20260507200603 54 319 1.0 7.0 0.00 0.00 0.00 54 1010.0
20260507200303 54 278 2.0 13.0 0.00 0.00 0.00 53 1010.0
20260507195526 54 180 3.0 13.0 0.00 0.00 0.00 54 1010.0
20260507195030 53 325 2.0 6.0 0.00 0.00 0.00 52 1010.0
20260507194520 54 315 1.0 6.0 0.00 0.00 0.00 52 1010.2
20260507194018 54 300 1.0 5.0 0.00 0.00 0.00 51 1010.2
20260507193510 53 292 2.0 5.0 0.00 0.00 0.00 50 1010.1
20260507193009 54 340 2.0 5.0 0.00 0.00 0.00 49 1010.2
20260507192948 54 272 2.0 6.0 0.00 0.00 0.00 48 1010.3
20260507192213 54 348 3.0 9.0 0.00 0.00 0.00 48 1010.4
20260507191434 54 268 3.0 10.0 0.00 0.00 0.00 47 1010.4
20260507190904 54 300 3.0 7.0 0.00 0.00 0.00 47 1010.4
20260507190351 55 302 2.0 7.0 0.00 0.00 0.00 48 1010.4
20260507185855 55 5 3.0 6.0 0.00 0.00 0.00 47 1010.4
20260507185318 55 15 2.0 6.0 0.00 0.00 0.00 47 1010.4
20260507184756 55 309 2.0 5.0 0.00 0.00 0.00 47 1010.5
20260507184216 55 313 2.0 9.0 0.00 0.00 0.00 47 1010.5
20260507183657 54 321 2.0 9.0 0.00 0.00 0.00 48 1010.5
20260507183200 54 284 3.0 7.0 0.00 0.00 0.00 46 1010.5
20260507182639 55 268 3.0 7.0 0.00 0.00 0.00 46 1010.6
20260507182122 55 287 3.0 17.0 0.00 0.00 0.00 46 1010.6
20260507181622 55 255 3.0 17.0 0.00 0.00 0.00 48 1010.6
20260507181048 55 207 2.0 11.0 0.00 0.00 0.00 50 1010.6
20260507180544 55 263 3.0 11.0 0.00 0.00 0.00 49 1010.5
20260507180048 55 315 3.0 7.0 0.00 0.00 0.00 49 1010.6
20260507175535 55 20 3.0 6.0 0.00 0.00 0.00 49 1010.5
20260507175036 55 296 2.0 12.0 0.00 0.00 0.00 49 1010.5
20260507174508 55 284 2.0 12.0 0.00 0.00 0.00 49 1010.7
20260507173951 55 250 2.0 9.0 0.00 0.00 0.00 49 1010.6
20260507173420 55 308 2.0 11.0 0.00 0.00 0.00 50 1010.8
20260507173336 55 39 2.0 11.0 0.00 0.00 0.00 48 1010.8
20260507172551 55 266 3.0 10.0 0.00 0.00 0.00 52 1010.7
20260507171815 54 278 4.0 10.0 0.00 0.00 0.00 51 1010.8
20260507171245 55 310 3.0 11.0 0.00 0.00 0.00 50 1010.6
20260507170714 55 336 3.0 11.0 0.00 0.00 0.00 48 1010.6
20260507170206 55 289 2.0 6.0 0.00 0.00 0.00 49 1010.6
20260507165704 56 317 2.0 4.0 0.00 0.00 0.00 48 1010.6
20260507165136 55 300 2.0 6.0 0.00 0.00 0.00 50 1010.6
20260507164636 55 298 2.0 6.0 0.00 0.00 0.00 50 1010.8
20260507164136 56 344 2.0 7.0 0.00 0.00 0.00 51 1010.6
20260507163606 56 311 2.0 7.0 0.00 0.00 0.00 49 1010.8
20260507163030 56 231 2.0 5.0 0.00 0.00 0.00 51 1010.7
20260507162502 55 220 2.0 11.0 0.00 0.00 0.00 50 1010.6
20260507161958 55 326 2.0 11.0 0.00 0.00 0.00 49 1010.6
20260507161458 55 325 2.0 11.0 0.00 0.00 0.00 52 1010.5
20260507160956 56 306 2.0 8.0 0.00 0.00 0.00 52 1010.7
20260507160413 56 276 1.0 5.0 0.00 0.00 0.00 54 1010.7
20260507155856 56 274 1.0 5.0 0.00 0.00 0.00 52 1010.8
20260507155346 56 251 1.0 4.0 0.00 0.00 0.00 55 1010.8
20260507154821 55 245 1.0 4.0 0.00 0.00 0.00 52 1010.7
20260507154304 55 246 1.0 3.0 0.00 0.00 0.00 57 1010.8
20260507153736 54 242 1.0 4.0 0.00 0.00 0.00 57 1010.5
20260507153139 53 238 2.0 5.0 0.00 0.00 0.00 58 1010.7
20260507152642 53 332 1.0 5.0 0.00 0.00 0.00 59 1010.7
20260507152108 53 303 1.0 5.0 0.00 0.00 0.00 57 1010.8
20260507151559 53 303 1.0 6.0 0.00 0.00 0.00 56 1010.8
20260507151048 54 236 1.0 6.0 0.00 0.00 0.00 57 1010.8
20260507150553 54 315 1.0 4.0 0.00 0.00 0.00 56 1010.8
20260507150239 54 263 1.0 4.0 0.00 0.00 0.00 59 1010.7
20260507145500 53 277 1.0 4.0 0.00 0.00 0.00 60 1010.6
20260507144946 53 277 0.0 4.0 0.00 0.00 0.00 61 1010.6
20260507144418 53 315 1.0 5.0 0.00 0.00 0.00 61 1010.8
20260507143836 53 315 1.0 5.0 0.00 0.00 0.00 62 1010.7
20260507143314 53 302 0.0 4.0 0.00 0.00 0.00 64 1010.7
20260507142806 53 299 0.0 4.0 0.00 0.00 0.00 64 1010.8
20260507142306 52 299 1.0 4.0 0.00 0.00 0.00 61 1010.7
20260507141736 53 299 1.0 4.0 0.00 0.00 0.00 62 1010.7
20260507141153 53 298 0.0 4.0 0.00 0.00 0.00 64 1010.8
20260507140834 52 298 1.0 4.0 0.00 0.00 0.00 64 1010.8
20260507140022 52 296 0.0 4.0 0.00 0.00 0.00 62 1010.8
20260507135444 51 296 0.0 0.0 0.00 0.00 0.00 63 1011.0
20260507135139 51 296 0.0 0.0 0.00 0.00 0.00 67 1010.8
20260507134333 51 296 0.0 3.0 0.00 0.00 0.00 67 1011.0
20260507133753 51 309 0.0 6.0 0.00 0.00 0.00 69 1011.0
20260507133228 50 269 1.0 5.0 0.00 0.00 0.00 70 1011.1